This is the latest recevied weather packets stored in our database for station/object KG4GJX. If no packets are shown the sender has not sent any weather packets the latest 10 day(s).
| Time | Temp. | Humidity | Pressure | Rain* | Wind** | Luminosity | Snow |
|---|---|---|---|---|---|---|---|
| 1777535989 | 15° C | 97% | 1011.8 hPa | 0 mm | - | - | - |
| 1777534666 | 15° C | 94% | 1011.8 hPa | 0 mm | - | - | - |
| 1777534004 | 15° C | 94% | 1011.1 hPa | 0 mm | - | - | - |
| 1777533341 | 15° C | 95% | 1011.5 hPa | 0 mm | - | - | - |
| 1777532679 | 15° C | 98% | 1011.5 hPa | 0 mm | - | - | - |
| 1777532017 | 15° C | 100% | 1011.8 hPa | 0 mm | - | - | - |
| 1777530692 | 14.44° C | 100% | 1011.8 hPa | 0 mm | - | - | - |
| 1777530029 | 14.44° C | 100% | 1011.8 hPa | 0 mm | - | - | - |
| 1777529367 | 14.44° C | 100% | 1011.5 hPa | 0 mm | - | - | - |
| 1777528704 | 14.44° C | 100% | 1011.8 hPa | 0 mm | - | - | - |
| 1777528042 | 15° C | 97% | 1011.8 hPa | 0 mm | - | - | - |
| 1777527379 | 15.56° C | 95% | 1012.1 hPa | 0 mm | - | - | - |
| 1777526717 | 15.56° C | 94% | 1012.5 hPa | 0 mm | - | - | - |
| 1777526055 | 15.56° C | 94% | 1012.5 hPa | 0 mm | - | - | - |
| 1777525393 | 15.56° C | 94% | 1012.5 hPa | 0 mm | - | - | - |
| 1777524731 | 16.11° C | 92% | 1012.5 hPa | 0 mm | - | - | - |
| 1777524063 | 16.11° C | 92% | 1012.5 hPa | 0 mm | - | - | - |
| 1777523401 | 16.67° C | 92% | 1012.8 hPa | 0 mm | - | - | - |
| 1777522738 | 16.67° C | 91% | 1012.8 hPa | 0 mm | - | - | - |
| 1777522076 | 17.22° C | 89% | 1013.2 hPa | 0 mm | - | - | - |
| 1777521414 | 17.22° C | 88% | 1013.2 hPa | 0 mm | - | - | - |
| 1777520751 | 17.22° C | 87% | 1013.2 hPa | 0 mm | - | - | - |
| 1777520089 | 17.78° C | 87% | 1013.2 hPa | 0 mm | - | - | - |
| 1777519426 | 17.78° C | 87% | 1013.2 hPa | 0 mm | - | - | - |
| 1777518758 | 17.78° C | 88% | 1013.5 hPa | 0 mm | - | - | - |
* Rain latest hour (hover to see other rain measurements)
** Current wind speed in m/s (hover to see current wind gust speed)